#timestamp,LO_Frequency,Hit,StdDev 
1642590015.6,286047000.3,N
1642590035.4,286047000.9,N
1642590055.2,286046998.2,N
1642590075.1,286047001.0,N
1642590076.0,286047001.0,N
1642590095.8,286046998.4,N
1642590115.7,286046996.5,N
1642590135.5,286046998.5,N
1642590155.3,286047002.5,N
1642590175.2,286047002.3,N
1642590195.0,286047001.9,N
1642590195.9,286047001.9,N
1642590215.7,286047004.0,N
1642590235.6,286047001.4,N
1642590255.4,286047002.2,N
1642590275.3,286047000.1,N
1642590295.1,286047000.9,N
1642590296.0,286047000.9,N
1642590315.8,286047000.6,N
1642590335.7,286047000.1,N
1642590355.5,286046998.4,N
1642590375.4,286047001.2,N
1642590395.2,286047000.4,N
1642590415.0,286047000.6,N
1642590415.9,286047000.6,N
1642590435.8,286047000.5,N
1642590455.6,286046999.9,N
1642590475.4,286047000.6,N
1642590495.3,286047001.2,N
1642590515.1,286047001.1,N
1642590535.9,286047000.5,N
1642590555.7,286047002.4,N
1642590575.5,286047000.2,N
1642590595.4,286047002.8,N
1642590615.2,286047002.7,N
1642590635.0,286047002.6,N
1642590636.0,286047002.6,N
1642590655.8,286047000.8,N
1642590675.6,286046998.1,N
1642590695.5,286046998.4,N
1642590715.3,286046999.1,N
1642590735.1,286047000.8,N
1642590755.9,286047000.6,N
1642590775.7,286046999.7,N
1642590795.6,286047000.1,N
1642590815.4,286047000.0,N
1642590835.2,286047001.0,N
1642590855.1,286047000.8,N
1642590856.0,286047000.8,N
1642590875.8,286047000.1,N
1642590895.6,286046999.9,N
1642590915.5,286047000.5,N
1642590935.3,286047002.7,N
1642590955.2,286047001.6,N
1642590975.9,286047001.3,N
1642590995.7,286047004.3,Y
1642591015.6,286047001.9,P
1642591035.4,286047002.6,P
1642591085.3,286046999.7,E
1642591095.2,286047002.1,N
1642591115.0,286047001.4,P
1642591115.9,286047001.4,P
1642591135.8,286047002.0,Y
1642591155.6,286047001.2,P
1642591175.4,286047001.0,P
1642591195.3,286047000.0,N
1642591215.1,286047002.5,Y
1642591235.9,286047000.7,P
1642591255.7,286047000.9,P
1642591275.5,286046998.5,P
1642591295.4,286046998.4,N
1642591315.2,286047000.3,N
1642591335.0,286047000.8,N
1642591335.9,286047000.8,N
1642591355.8,286046998.1,N
1642591375.6,286046996.9,N
1642591395.5,286046999.6,N
1642591415.3,286046997.0,N
1642591435.1,286046999.3,N
1642591455.9,286046996.7,N
1642591475.7,286046997.9,N
1642591495.5,286046997.7,N
1642591515.4,286046997.4,N
1642591535.2,286046997.2,N
1642591555.0,286046997.5,N
1642591556.0,286046997.5,N
1642591575.8,286046998.0,N
1642591595.6,286046995.3,Y
1642591615.5,286046999.0,P
1642591635.3,286046998.5,P
1642591655.1,286046998.6,P
1642591675.9,286046998.7,Y
1642591695.7,286046999.9,P
1642591715.6,286047000.1,N
1642591735.4,286047000.0,N
1642591755.2,286047002.0,Y
1642591775.1,286047001.4,P
1642591776.0,286047001.4,N
1642591795.8,286047004.3,P
1642591815.7,286047002.5,N
1642591835.5,286046999.7,N
1642591855.3,286046999.8,N
1642591875.2,286047002.4,N
1642591895.9,286047000.5,N
1642591915.7,286047001.9,N
1642591935.6,286047004.0,N
1642591955.4,286047003.7,N
1642591975.2,286047003.5,N
1642591995.1,286047001.7,N
1642591996.0,286047001.7,N
1642592015.8,286047002.8,N
1642592035.1,286047002.6,N
1642592036.0,286047002.6,N
1642592055.8,286047002.2,N
1642592075.7,286047002.5,N
1642592095.5,286047000.3,N
1642592115.3,286047000.4,N
1642592135.2,286047002.6,N
1642592155.0,286047002.3,N
1642592155.9,286047002.3,N
1642592175.8,286047002.0,N
1642592195.6,286047002.0,N
1642592215.4,286047002.5,N
1642592235.3,286046999.9,N
1642592255.1,286047000.3,N
1642592275.9,286046998.2,N
1642592295.7,286046998.7,N
1642592315.5,286047000.9,N
1642592335.4,286046999.7,N
1642592355.2,286047002.0,N
1642592375.0,286047001.5,N
1642592375.9,286047001.5,N
1642592395.8,286047004.0,N
1642592415.6,286047002.2,N
1642592435.5,286047002.2,N
1642592455.3,286047000.0,N
1642592475.1,286047002.5,N
1642592495.9,286047001.7,N
1642592515.7,286047002.3,N
1642592535.6,286047002.8,N
1642592555.4,286047000.6,N
1642592575.2,286047000.8,N
1642592595.1,286047000.9,N
1642592596.0,286047000.9,N
1642592615.8,286047000.3,N
1642592635.6,286046999.7,N
1642592655.5,286046999.8,N
1642592675.3,286047002.0,N
1642592695.2,286047002.8,N
1642592715.9,286047002.4,N
1642592735.7,286047002.5,N
1642592755.6,286047004.3,Y
1642592775.4,286047002.4,P
1642592795.2,286047001.5,N
1642592815.1,286047001.6,P
1642592816.0,286047001.6,Y
1642592835.8,286047000.5,P
1642592855.7,286046999.8,N
1642592875.5,286047000.5,N
1642592895.3,286047000.6,N
1642592915.2,286047000.7,N
1642592935.0,286046999.4,N
1642592935.9,286046999.4,N
1642592955.7,286046998.4,N
1642592975.6,286046996.5,Y
1642592995.4,286046996.5,P
1642593015.3,286046999.5,N
1642593035.1,286046999.6,N
1642593055.8,286046996.9,N
1642593075.7,286046998.2,N
1642593095.5,286046998.5,N
1642593115.4,286047001.2,N
1642593135.2,286047001.1,N
1642593155.0,286046998.4,N
1642593155.9,286046998.4,N
1642593175.8,286046998.9,N
1642593195.6,286046999.1,N
1642593215.4,286046996.8,N
1642593235.3,286046998.5,N
1642593255.1,286046998.5,N
1642593275.9,286047001.7,N
1642593295.7,286047002.6,N
1642593315.5,286047000.6,N
1642593335.7,286047000.8,N
1642593355.5,286047001.1,N
1642593375.3,286046998.7,N
1642593395.2,286046998.5,N
1642593415.0,286046998.7,N
1642593415.9,286046998.7,N
1642593435.8,286046999.3,N
1642593455.6,286046997.5,N
1642593475.4,286046997.5,N
1642593495.3,286046997.6,N
1642593515.1,286046997.8,N
1642593535.8,286046998.2,N
1642593555.7,286046998.4,N
1642593575.5,286046998.7,N
1642593595.4,286046999.0,N
